Terminal Aerodrome Forecast
Issued by NWS

Home | Current Version | Previous Version | Graphics & Text | Print | Product List | Glossary On
Versions: 1 2 3 4 5 6 7 8 9 10 11 12 13 14 15
000
FTUS43 KMPX 272300
TAFAXN
TAF
KAXN 272331Z 2800/2824 33012G20KT P6SM VCSH SCT025 BKN035
     FM280100 35009KT P6SM SCT030 BKN045
     FM280500 34005KT P6SM SCT050
     FM281600 33008KT P6SM SCT040=

USA.gov is the U.S. government's official web portal to all federal, state and local government web resources and services.